Location: Pinon Hills
(34.4429°N, 117.6403°W)
Time: 10:20:57
(UTC-07:00)

Amateur Radio Satellites - All Passes

Search period start: 23 August 2014 09:50
Search period end: 24 August 2014 09:50
Location: Pinon Hills, 34.4429°N, 117.6403°W

Satellite Date Start Highest point End Downlink Frequencies (MHz)
Time Altitude Azimuth
HO-68 23 Aug 09:55:49 10:02:59 77° 104° (ESE) 10:10:08 435.675 MHz FM
UKube-1 23 Aug 10:08:54 10:13:13 67° 102° (ESE) 10:17:31 145.840 MHz, 145.915 MHz
RS-15 23 Aug 10:16:48 10:27:28 51° 307° (NW) 10:38:02 29.354 - 29.394 USB, Beacon 29.352 USB
Saudisat 1A 23 Aug 10:22:11 10:26:31 58° 244° (WSW) 10:30:49 436.775 MHz
Oscar 11 23 Aug 10:23:43 10:28:03 60° 101° (E) 10:32:21 145.825 FM, Beacon 2401.500 USB
FUNcube-1 23 Aug 10:27:18 10:30:56 24° 96° (E) 10:34:35 145.950 - 145.970 MHz USB
KITSAT 1 23 Aug 11:12:30 11:20:27 64° 248° (WSW) 11:28:21 435.175 FM
HO-68 23 Aug 11:45:23 11:49:52 18° 301° (WNW) 11:54:22 435.675 MHz FM
Oscar 11 23 Aug 12:02:55 12:03:40 10° 295° (WNW) 12:04:25 145.825 FM, Beacon 2401.500 USB
FUNcube-1 23 Aug 12:03:31 12:07:13 26° 289° (WNW) 12:10:58 145.950 - 145.970 MHz USB
RS-15 23 Aug 12:37:35 12:43:19 15° 336° (NNW) 12:49:05 29.354 - 29.394 USB, Beacon 29.352 USB
AO-Echo 23 Aug 12:49:14 12:50:33 11° 64° (ENE) 12:51:51 ?
Oscar 19 23 Aug 12:53:38 12:57:57 28° 69° (ENE) 13:02:18 437.125 CW, 437.150 USB
ISS 23 Aug 13:08:19 13:11:37 86° 317° (NW) 13:14:57 145.800 FM
ITAMSAT 1 23 Aug 13:08:55 13:12:12 17° 65° (ENE) 13:15:29 435.822 SSB
Uribyol 2 23 Aug 13:20:07 13:24:09 24° 68° (ENE) 13:28:11 436.500 FM
Oscar 16 23 Aug 13:26:11 13:31:15 63° 74° (ENE) 13:36:21 437.025 USB, Beacon 2401.1428
AO-27 23 Aug 13:34:19 13:38:50 31° 70° (ENE) 13:43:22 436.795 MHz FM
JAS-1B 23 Aug 13:34:19 13:43:23 43° 67° (ENE) 13:52:01 435.800 - 435.900 CW/SSB
PANSAT 23 Aug 14:14:00 14:14:47 11° 157° (SSE) 14:15:33 not established
AO-7 23 Aug 14:14:01 14:16:39 12° 51° (NE) 14:19:17 29.400 - 29.500 MHz
TMSAT-1 23 Aug 14:14:11 14:18:17 23° 68° (ENE) 14:22:23 436.925 FM
AO-Echo 23 Aug 14:23:29 14:28:40 77° 258° (WSW) 14:33:44 ?
MaSat-1 23 Aug 14:27:06 14:31:20 39° 106° (ESE) 14:36:00 437.345 MHz
SO-50 23 Aug 14:27:06 14:31:35 38° 56° (NE) 14:36:06 436.795 FM
Oscar 19 23 Aug 14:32:47 14:37:10 29° 263° (W) 14:41:37 437.125 CW, 437.150 USB
ITAMSAT 1 23 Aug 14:46:15 14:51:15 49° 260° (W) 14:56:17 435.822 SSB
ISS 23 Aug 14:47:29 14:48:47 12° 333° (NNW) 14:50:06 145.800 FM
Gurwin Techsat 1B 23 Aug 14:55:43 15:01:01 84° 76° (ENE) 15:06:21 435.225 FM
Uribyol 2 23 Aug 14:58:44 15:03:24 35° 262° (W) 15:08:05 436.500 FM
RS-15 23 Aug 14:59:01 15:02:55 12° 15° (NNE) 15:06:50 29.354 - 29.394 USB, Beacon 29.352 USB
Oscar 16 23 Aug 15:09:00 15:10:58 12° 268° (W) 15:12:57 437.025 USB, Beacon 2401.1428
Uosat F 23 Aug 15:09:40 15:12:19 15° 64° (ENE) 15:14:58 435.120 FM
AO-27 23 Aug 15:14:01 15:18:18 26° 264° (W) 15:22:35 436.795 MHz FM
JAS-1B 23 Aug 15:24:11 15:33:33 47° 262° (W) 15:42:40 435.800 - 435.900 CW/SSB
UOSAT-12 23 Aug 15:32:18 15:35:01 15° 47° (NE) 15:37:42 437.025 FM, 437.400 FM
PANSAT 23 Aug 15:51:11 15:54:23 25° 168° (SSE) 15:57:36 not established
TMSAT-1 23 Aug 15:53:05 15:57:56 37° 262° (W) 16:02:49 436.925 FM
AO-7 23 Aug 15:59:37 16:07:50 65° 69° (ENE) 16:16:03 29.400 - 29.500 MHz
MaSat-1 23 Aug 16:04:54 16:08:35 22° 304° (NW) 16:12:30 437.345 MHz
OPAL 23 Aug 16:06:04 16:08:48 14° 95° (E) 16:11:32 ?
SO-50 23 Aug 16:08:18 16:11:53 21° 250° (WSW) 16:15:29 436.795 FM
Uosat F 23 Aug 16:45:40 16:50:35 56° 259° (W) 16:55:31 435.120 FM
Sapphire 23 Aug 17:09:14 17:10:03 10° 102° (ESE) 17:10:51 437.095 MHz 1200 baud AX-25 AFSK
RS-15 23 Aug 17:09:59 17:20:00 37° 47° (NE) 17:30:17 29.354 - 29.394 USB, Beacon 29.352 USB
UOSAT-12 23 Aug 17:10:55 17:15:34 62° 244° (WSW) 17:20:08 437.025 FM, 437.400 FM
PANSAT 23 Aug 17:30:42 17:34:11 33° 181° (S) 17:37:40 not established
JAS-2 23 Aug 17:34:45 17:41:03 43° 72° (ENE) 17:46:40 435.800 - 435.900 CW/SSB, 435.910 FM
PCSat 23 Aug 17:35:50 17:40:02 24° 106° (ESE) 17:44:15 145.825 MHz
OPAL 23 Aug 17:42:51 17:47:58 58° 288° (WNW) 17:53:03 ?
AO-7 23 Aug 17:54:42 18:01:01 24° 264° (W) 18:07:23 29.400 - 29.500 MHz
Oscar 10/S400 23 Aug 18:01:13 18:19:22 47° 150° (SSE) 18:49:13 145.825 - 145.975 CW/USB, Beacon 145.810 USB
Hamsat 23 Aug 18:13:15 18:17:29 76° 259° (WSW) 18:21:49 145.90 MHz
Sapphire 23 Aug 18:47:18 18:52:42 80° 296° (WNW) 18:58:08 437.095 MHz 1200 baud AX-25 AFSK
PANSAT 23 Aug 19:10:55 19:13:58 22° 194° (SSW) 19:17:00 not established
STRAND 1 23 Aug 19:13:55 19:18:47 45° 100° (E) 19:23:38 ?
PCSat 23 Aug 19:18:08 19:23:09 39° 302° (WNW) 19:28:14 145.825 MHz
JAS-2 23 Aug 19:20:38 19:26:06 26° 263° (W) 19:31:07 435.800 - 435.900 CW/SSB, 435.910 FM
RS-15 23 Aug 19:21:58 19:32:51 62° 248° (WSW) 19:44:13 29.354 - 29.394 USB, Beacon 29.352 USB
ISS 23 Aug 19:40:23 19:43:06 23° 34° (NE) 19:45:49 145.800 FM
SO-67 23 Aug 19:43:42 19:46:56 37° 262° (W) 19:50:11 435.3500 MHz FM
HO-68 23 Aug 20:20:38 20:27:09 40° 67° (ENE) 20:33:41 435.675 MHz FM
Sapphire 23 Aug 20:35:40 20:36:58 11° 314° (NW) 20:38:17 437.095 MHz 1200 baud AX-25 AFSK
STRAND 1 23 Aug 20:54:10 20:57:35 18° 294° (WNW) 21:01:00 ?
UKube-1 23 Aug 21:01:05 21:05:03 36° 72° (ENE) 21:09:02 145.840 MHz, 145.915 MHz
Oscar 11 23 Aug 21:15:35 21:19:20 30° 71° (ENE) 21:23:06 145.825 FM, Beacon 2401.500 USB
ISS 23 Aug 21:16:52 21:19:50 30° 229° (SW) 21:22:48 145.800 FM
FUNcube-1 23 Aug 21:22:38 21:24:08 12° 66° (ENE) 21:25:39 145.950 - 145.970 MHz USB
AO-40 23 Aug 21:34:24 03:30:05 48° 182° (S) 09:46:31 Beacon 2401.320
HO-68 23 Aug 22:08:31 22:14:49 34° 262° (W) 22:21:09 435.675 MHz FM
UKube-1 23 Aug 22:38:41 22:41:20 16° 266° (W) 22:44:00 145.840 MHz, 145.915 MHz
Oscar 11 23 Aug 22:52:26 22:55:30 19° 265° (W) 22:58:36 145.825 FM, Beacon 2401.500 USB
FUNcube-1 23 Aug 22:56:07 23:00:05 46° 261° (W) 23:04:07 145.950 - 145.970 MHz USB
KITSAT 1 23 Aug 23:42:48 23:49:18 28° 105° (ESE) 23:55:49 435.175 FM
Saudisat 1A 24 Aug 00:24:57 00:29:21 86° 118° (ESE) 00:33:47 436.775 MHz
MaSat-1 24 Aug 00:25:20 00:29:46 40° 61° (ENE) 00:33:38 437.345 MHz
Oscar 19 24 Aug 01:10:19 01:12:38 13° 92° (E) 01:14:57 437.125 CW, 437.150 USB
KITSAT 1 24 Aug 01:36:15 01:44:10 57° 301° (WNW) 01:52:07 435.175 FM
Uribyol 2 24 Aug 01:39:05 01:39:45 10° 91° (E) 01:40:25 436.500 FM
Oscar 16 24 Aug 01:41:58 01:46:31 30° 97° (E) 01:51:01 437.025 USB, Beacon 2401.1428
AO-27 24 Aug 01:52:10 01:54:59 15° 93° (E) 01:57:47 436.795 MHz FM
MaSat-1 24 Aug 02:03:49 02:06:17 15° 261° (W) 02:08:34 437.345 MHz
Saudisat 1A 24 Aug 02:09:00 02:09:31 10° 315° (NW) 02:10:03 436.775 MHz
PCSat 24 Aug 02:29:11 02:30:18 11° 46° (NE) 02:31:24 145.825 MHz
AO-Echo 24 Aug 02:34:43 02:39:12 44° 99° (E) 02:43:40 ?
TMSAT-1 24 Aug 02:35:22 02:37:02 11° 91° (E) 02:38:41 436.925 FM
Oscar 19 24 Aug 02:47:11 02:52:19 61° 286° (WNW) 02:57:25 437.125 CW, 437.150 USB
ITAMSAT 1 24 Aug 03:02:33 03:07:45 80° 103° (ESE) 03:12:55 435.822 SSB
Uribyol 2 24 Aug 03:14:29 03:19:40 74° 285° (WNW) 03:24:50 436.500 FM
Gurwin Techsat 1B 24 Aug 03:15:48 03:20:53 45° 99° (E) 03:25:55 435.225 FM
JAS-1B 24 Aug 03:16:15 03:23:22 78° 103° (ESE) 03:29:23 435.800 - 435.900 CW/SSB
OPAL 24 Aug 03:17:35 03:20:52 18° 63° (ENE) 03:24:11 ?
Oscar 16 24 Aug 03:21:23 03:25:43 27° 291° (WNW) 03:30:02 437.025 USB, Beacon 2401.1428
AO-27 24 Aug 03:29:43 03:34:46 54° 287° (WNW) 03:39:47 436.795 MHz FM
KITSAT 1 24 Aug 03:38:13 03:41:29 13° 324° (NW) 03:44:46 435.175 FM
Sapphire 24 Aug 03:39:06 03:44:10 38° 58° (ENE) 03:49:11 437.095 MHz 1200 baud AX-25 AFSK
AO-7 24 Aug 04:06:20 04:12:55 26° 96° (E) 04:19:27 29.400 - 29.500 MHz
PCSat 24 Aug 04:09:09 04:14:35 78° 64° (ENE) 04:19:59 145.825 MHz
TMSAT-1 24 Aug 04:12:06 04:17:22 70° 285° (WNW) 04:22:37 436.925 FM
AO-Echo 24 Aug 04:14:49 04:17:36 16° 294° (WNW) 04:20:22 ?
SO-50 24 Aug 04:39:21 04:43:03 26° 111° (ESE) 04:46:49 436.795 FM
ITAMSAT 1 24 Aug 04:45:19 04:46:31 11° 298° (WNW) 04:47:42 435.822 SSB
OPAL 24 Aug 04:54:33 04:59:20 47° 258° (WSW) 05:04:13 ?
Gurwin Techsat 1B 24 Aug 04:56:46 05:00:27 20° 294° (WNW) 05:04:08 435.225 FM
Uosat F 24 Aug 04:56:55 05:01:52 59° 101° (ESE) 05:06:47 435.120 FM
JAS-1B 24 Aug 05:09:07 05:12:48 15° 304° (NW) 05:16:13 435.800 - 435.900 CW/SSB
Sapphire 24 Aug 05:23:02 05:27:19 24° 253° (WSW) 05:31:35 437.095 MHz 1200 baud AX-25 AFSK
PCSat 24 Aug 05:56:01 05:57:15 11° 258° (WSW) 05:58:29 145.825 MHz
AO-7 24 Aug 05:57:56 06:06:02 60° 292° (WNW) 06:14:05 29.400 - 29.500 MHz
Hamsat 24 Aug 06:03:09 06:06:45 25° 96° (E) 06:10:19 145.90 MHz
SO-50 24 Aug 06:19:42 06:23:30 27° 307° (NW) 06:27:23 436.795 FM
STRAND 1 24 Aug 06:26:23 06:31:13 45° 72° (ENE) 06:36:03 ?
JAS-2 24 Aug 06:32:10 06:37:09 46° 100° (E) 06:42:24 435.800 - 435.900 CW/SSB, 435.910 FM
Uosat F 24 Aug 06:37:40 06:40:06 14° 296° (WNW) 06:42:32 435.120 FM
SO-67 24 Aug 07:11:37 07:13:59 17° 95° (E) 07:16:21 435.3500 MHz FM
UOSAT-12 24 Aug 07:18:22 07:22:56 88° 300° (WNW) 07:27:38 437.025 FM, 437.400 FM
RS-15 24 Aug 07:30:47 07:39:49 30° 105° (ESE) 07:48:37 29.354 - 29.394 USB, Beacon 29.352 USB
Hamsat 24 Aug 07:39:07 07:42:34 23° 290° (WNW) 07:46:00 145.90 MHz
AO-7 24 Aug 07:55:46 07:57:05 10° 311° (NW) 07:58:25 29.400 - 29.500 MHz
STRAND 1 24 Aug 08:07:15 08:10:34 17° 266° (W) 08:13:53 ?
JAS-2 24 Aug 08:18:38 08:21:57 17° 294° (WNW) 08:25:20 435.800 - 435.900 CW/SSB, 435.910 FM
SO-67 24 Aug 08:44:23 08:46:56 19° 288° (WNW) 08:49:28 435.3500 MHz FM
Saudisat 1A 24 Aug 08:55:33 08:59:13 25° 53° (NE) 09:02:51 436.775 MHz
UOSAT-12 24 Aug 09:02:50 09:03:47 11° 316° (NW) 09:04:44 437.025 FM, 437.400 FM
KITSAT 1 24 Aug 09:33:32 09:41:01 40° 54° (NE) 09:48:26 435.175 FM
